Time,TemperatureF,DewpointF,PressureIn,WindDirection,WindDirectionDegrees,WindSpeedMPH,WindSpeedGustMPH,Humidity,HourlyPrecipIn,Conditions,Clouds,dailyrainin,SoftwareType,DateUTC
2013-02-24 00:07:00,23.5,20.0,30.45,NNW,332,1.0,2.0,85,0.00,,,0.00,weatherlink.com 1.10,2013-02-24 08:07:00,
2013-02-24 00:22:00,24.1,20.0,30.46,NW,313,2.0,5.0,84,0.00,,,0.00,weatherlink.com 1.10,2013-02-24 08:22:00,
2013-02-24 00:37:00,24.3,20.0,30.47,South,183,0.0,7.0,83,0.00,,,0.00,weatherlink.com 1.10,2013-02-24 08:37:00,
2013-02-24 00:52:00,24.2,20.0,30.47,South,183,1.0,4.0,83,0.00,,,0.00,weatherlink.com 1.10,2013-02-24 08:52:00,
2013-02-24 01:07:00,23.2,19.0,30.48,South,183,2.0,3.0,85,0.00,,,0.00,weatherlink.com 1.10,2013-02-24 09:07:00,
2013-02-24 01:22:00,23.1,19.0,30.48,South,183,2.0,4.0,84,0.00,,,0.00,weatherlink.com 1.10,2013-02-24 09:22:00,
2013-02-24 01:37:00,23.6,20.0,30.48,South,176,1.0,7.0,84,0.00,,,0.00,weatherlink.com 1.10,2013-02-24 09:37:00,
2013-02-24 01:52:00,24.1,19.0,30.48,SSE,153,3.0,8.0,82,0.00,,,0.00,weatherlink.com 1.10,2013-02-24 09:52:00,
2013-02-24 02:07:00,24.1,19.0,30.48,South,172,4.0,8.0,82,0.00,,,0.00,weatherlink.com 1.10,2013-02-24 10:07:00,
2013-02-24 02:22:00,24.0,19.0,30.48,SSW,196,3.0,9.0,82,0.00,,,0.00,weatherlink.com 1.10,2013-02-24 10:22:00,
2013-02-24 02:38:00,24.2,19.0,30.48,South,182,3.0,9.0,82,0.00,,,0.00,weatherlink.com 1.10,2013-02-24 10:38:00,
2013-02-24 02:53:00,24.0,19.0,30.47,South,183,4.0,8.0,82,0.00,,,0.00,weatherlink.com 1.10,2013-02-24 10:53:00,
2013-02-24 03:08:00,24.1,20.0,30.47,SSE,165,2.0,7.0,83,0.00,,,0.00,weatherlink.com 1.10,2013-02-24 11:08:00,
2013-02-24 03:23:00,24.1,20.0,30.47,South,177,5.0,7.0,83,0.00,,,0.00,weatherlink.com 1.10,2013-02-24 11:23:00,
2013-02-24 03:38:00,24.3,20.0,30.47,South,171,4.0,8.0,82,0.00,,,0.00,weatherlink.com 1.10,2013-02-24 11:38:00,
2013-02-24 03:53:00,24.5,20.0,30.47,South,179,7.0,9.0,82,0.00,,,0.00,weatherlink.com 1.10,2013-02-24 11:53:00,
2013-02-24 04:08:00,24.4,20.0,30.47,South,177,6.0,10.0,82,0.00,,,0.00,weatherlink.com 1.10,2013-02-24 12:08:00,
2013-02-24 04:23:00,24.6,20.0,30.47,South,178,7.0,10.0,82,0.00,,,0.00,weatherlink.com 1.10,2013-02-24 12:23:00,
2013-02-24 04:38:00,24.5,19.0,30.47,SSE,160,5.0,8.0,81,0.00,,,0.00,weatherlink.com 1.10,2013-02-24 12:38:00,
2013-02-24 04:53:00,24.1,19.0,30.46,SSE,155,6.0,8.0,82,0.00,,,0.00,weatherlink.com 1.10,2013-02-24 12:53:00,
2013-02-24 05:08:00,24.0,19.0,30.46,SSE,150,4.0,7.0,82,0.00,,,0.00,weatherlink.com 1.10,2013-02-24 13:08:00,
2013-02-24 05:23:00,24.0,19.0,30.46,South,171,9.0,9.0,82,0.00,,,0.00,weatherlink.com 1.10,2013-02-24 13:23:00,
2013-02-24 05:38:00,23.8,19.0,30.46,South,175,4.0,10.0,81,0.00,,,0.00,weatherlink.com 1.10,2013-02-24 13:38:00,
2013-02-24 05:53:00,23.8,19.0,30.47,SE,146,6.0,9.0,81,0.00,,,0.00,weatherlink.com 1.10,2013-02-24 13:53:00,
2013-02-24 06:08:00,23.2,18.0,30.47,SE,143,2.0,9.0,81,0.00,,,0.00,weatherlink.com 1.10,2013-02-24 14:08:00,
2013-02-24 06:23:00,22.7,18.0,30.46,SE,139,4.0,8.0,83,0.00,,,0.00,weatherlink.com 1.10,2013-02-24 14:23:00,
2013-02-24 06:38:00,22.9,18.0,30.47,SE,131,5.0,8.0,82,0.00,,,0.00,weatherlink.com 1.10,2013-02-24 14:38:00,
2013-02-24 06:53:00,22.9,18.0,30.47,SE,144,3.0,9.0,82,0.00,,,0.00,weatherlink.com 1.10,2013-02-24 14:53:00,
2013-02-24 07:08:00,23.2,19.0,30.47,South,179,7.0,10.0,82,0.00,,,0.00,weatherlink.com 1.10,2013-02-24 15:08:00,
2013-02-24 07:23:00,23.7,19.0,30.47,South,184,6.0,16.0,81,0.00,,,0.00,weatherlink.com 1.10,2013-02-24 15:23:00,
2013-02-24 07:38:00,24.2,19.0,30.46,South,171,5.0,13.0,80,0.00,,,0.00,weatherlink.com 1.10,2013-02-24 15:38:00,
2013-02-24 07:53:00,25.0,19.0,30.46,South,175,5.0,15.0,78,0.00,,,0.00,weatherlink.com 1.10,2013-02-24 15:53:00,
2013-02-24 08:08:00,26.0,20.0,30.46,South,181,5.0,18.0,77,0.00,,,0.00,weatherlink.com 1.10,2013-02-24 16:08:00,
2013-02-24 08:23:00,27.4,20.0,30.46,South,187,11.0,13.0,75,0.00,,,0.00,weatherlink.com 1.10,2013-02-24 16:23:00,
2013-02-24 08:38:00,27.5,20.0,30.46,South,178,12.0,14.0,73,0.00,,,0.00,weatherlink.com 1.10,2013-02-24 16:38:00,
2013-02-24 08:53:00,27.8,20.0,30.45,South,184,10.0,15.0,73,0.00,,,0.00,weatherlink.com 1.10,2013-02-24 16:53:00,
2013-02-24 09:08:00,28.0,20.0,30.45,South,190,8.0,14.0,73,0.00,,,0.00,weatherlink.com 1.10,2013-02-24 17:08:00,
2013-02-24 09:23:00,28.4,20.0,30.45,SSE,153,10.0,15.0,72,0.00,,,0.00,weatherlink.com 1.10,2013-02-24 17:23:00,
2013-02-24 09:38:00,29.1,20.0,30.44,SSW,204,8.0,16.0,70,0.00,,,0.00,weatherlink.com 1.10,2013-02-24 17:38:00,
2013-02-24 09:53:00,29.3,20.0,30.44,SSE,162,10.0,14.0,68,0.00,,,0.00,weatherlink.com 1.10,2013-02-24 17:53:00,
2013-02-24 10:08:00,29.8,20.0,30.44,SE,126,12.0,15.0,67,0.00,,,0.00,weatherlink.com 1.10,2013-02-24 18:08:00,
2013-02-24 10:24:00,30.6,20.0,30.43,South,173,12.0,17.0,65,0.00,,,0.00,weatherlink.com 1.10,2013-02-24 18:24:00,
2013-02-24 10:39:00,31.5,19.0,30.42,SSE,157,4.0,15.0,61,0.00,,,0.00,weatherlink.com 1.10,2013-02-24 18:39:00,
2013-02-24 10:54:00,32.0,19.0,30.43,SSE,161,5.0,17.0,59,0.00,,,0.00,weatherlink.com 1.10,2013-02-24 18:54:00,
2013-02-24 11:09:00,33.2,19.0,30.43,South,173,7.0,14.0,56,0.00,,,0.00,weatherlink.com 1.10,2013-02-24 19:09:00,
2013-02-24 11:24:00,33.5,19.0,30.43,ESE,123,7.0,13.0,55,0.00,,,0.00,weatherlink.com 1.10,2013-02-24 19:24:00,
2013-02-24 11:39:00,34.6,19.0,30.42,SSE,155,8.0,13.0,53,0.00,,,0.00,weatherlink.com 1.10,2013-02-24 19:39:00,
2013-02-24 11:54:00,35.7,19.0,30.42,SSE,153,5.0,12.0,51,0.00,,,0.00,weatherlink.com 1.10,2013-02-24 19:54:00,
2013-02-24 12:09:00,36.8,20.0,30.42,SSW,192,6.0,11.0,50,0.00,,,0.00,weatherlink.com 1.10,2013-02-24 20:09:00,
2013-02-24 12:24:00,38.0,20.0,30.41,ESE,116,3.0,13.0,49,0.00,,,0.00,weatherlink.com 1.10,2013-02-24 20:24:00,
2013-02-24 12:39:00,39.0,21.0,30.40,South,173,6.0,12.0,48,0.00,,,0.00,weatherlink.com 1.10,2013-02-24 20:39:00,
2013-02-24 12:54:00,39.9,20.0,30.39,SE,139,3.0,10.0,45,0.00,,,0.00,weatherlink.com 1.10,2013-02-24 20:54:00,
2013-02-24 13:09:00,40.6,21.0,30.38,SSE,153,8.0,10.0,45,0.00,,,0.00,weatherlink.com 1.10,2013-02-24 21:09:00,
2013-02-24 13:24:00,41.3,21.0,30.37,SE,144,5.0,8.0,44,0.00,,,0.00,weatherlink.com 1.10,2013-02-24 21:24:00,
2013-02-24 13:39:00,41.7,22.0,30.36,SE,139,7.0,10.0,45,0.00,,,0.00,weatherlink.com 1.10,2013-02-24 21:39:00,
2013-02-24 13:54:00,42.4,22.0,30.36,ESE,102,3.0,9.0,44,0.00,,,0.00,weatherlink.com 1.10,2013-02-24 21:54:00,
2013-02-24 14:09:00,43.3,23.0,30.35,ESE,123,2.0,10.0,45,0.00,,,0.00,weatherlink.com 1.10,2013-02-24 22:09:00,
2013-02-24 14:24:00,44.3,24.0,30.34,SE,146,3.0,9.0,45,0.00,,,0.00,weatherlink.com 1.10,2013-02-24 22:24:00,
2013-02-24 14:39:00,44.9,24.0,30.33,SW,215,6.0,8.0,44,0.00,,,0.00,weatherlink.com 1.10,2013-02-24 22:39:00,
2013-02-24 14:54:00,45.0,24.0,30.33,South,182,6.0,9.0,44,0.00,,,0.00,weatherlink.com 1.10,2013-02-24 22:54:00,
2013-02-24 15:09:00,45.7,24.0,30.32,SSE,168,4.0,10.0,43,0.00,,,0.00,weatherlink.com 1.10,2013-02-24 23:09:00,
2013-02-24 15:25:00,46.4,25.0,30.32,SE,138,3.0,12.0,44,0.00,,,0.00,weatherlink.com 1.10,2013-02-24 23:25:00,
2013-02-24 15:40:00,46.0,27.0,30.31,SSW,192,8.0,12.0,47,0.00,,,0.00,weatherlink.com 1.10,2013-02-24 23:40:00,
2013-02-24 15:55:00,46.1,28.0,30.30,SSE,154,6.0,12.0,49,0.00,,,0.00,weatherlink.com 1.10,2013-02-24 23:55:00,
2013-02-24 16:10:00,45.2,28.0,30.29,SSE,152,1.0,9.0,51,0.00,,,0.00,weatherlink.com 1.10,2013-02-25 00:10:00,
2013-02-24 16:40:00,44.8,29.0,30.27,SSE,164,3.0,10.0,55,0.00,,,0.00,weatherlink.com 1.10,2013-02-25 00:40:00,
2013-02-24 16:55:00,45.2,29.0,30.27,SE,132,4.0,7.0,54,0.00,,,0.00,weatherlink.com 1.10,2013-02-25 00:55:00,
2013-02-24 17:10:00,45.0,30.0,30.26,South,172,6.0,7.0,56,0.00,,,0.00,weatherlink.com 1.10,2013-02-25 01:10:00,
2013-02-24 17:25:00,44.7,30.0,30.25,SSW,192,5.0,11.0,57,0.00,,,0.00,weatherlink.com 1.10,2013-02-25 01:25:00,
2013-02-24 17:40:00,44.2,30.0,30.25,South,188,3.0,12.0,58,0.00,,,0.00,weatherlink.com 1.10,2013-02-25 01:40:00,
2013-02-24 17:55:00,42.7,28.0,30.25,South,190,2.0,5.0,57,0.00,,,0.00,weatherlink.com 1.10,2013-02-25 01:55:00,
2013-02-24 18:10:00,41.2,28.0,30.25,South,190,0.0,2.0,59,0.00,,,0.00,weatherlink.com 1.10,2013-02-25 02:10:00,
2013-02-24 18:25:00,40.6,28.0,30.24,South,190,2.0,2.0,60,0.00,,,0.00,weatherlink.com 1.10,2013-02-25 02:25:00,
2013-02-24 18:40:00,38.4,27.0,30.24,South,191,2.0,5.0,65,0.00,,,0.00,weatherlink.com 1.10,2013-02-25 02:40:00,
2013-02-24 19:10:00,37.8,30.0,30.23,South,190,3.0,4.0,73,0.00,,,0.00,weatherlink.com 1.10,2013-02-25 03:10:00,
2013-02-24 19:25:00,38.2,30.0,30.23,South,189,2.0,5.0,73,0.00,,,0.00,weatherlink.com 1.10,2013-02-25 03:25:00,
2013-02-24 19:40:00,38.1,30.0,30.22,SSE,161,2.0,8.0,72,0.00,,,0.00,weatherlink.com 1.10,2013-02-25 03:40:00,
2013-02-24 19:55:00,37.7,29.0,30.22,SSE,162,3.0,5.0,72,0.00,,,0.00,weatherlink.com 1.10,2013-02-25 03:55:00,
2013-02-24 20:10:00,37.8,30.0,30.22,SSE,165,5.0,7.0,73,0.00,,,0.00,weatherlink.com 1.10,2013-02-25 04:10:00,
2013-02-24 20:25:00,37.9,30.0,30.21,South,174,2.0,9.0,73,0.00,,,0.00,weatherlink.com 1.10,2013-02-25 04:25:00,
2013-02-24 20:40:00,37.5,29.0,30.21,SSE,163,1.0,5.0,71,0.00,,,0.00,weatherlink.com 1.10,2013-02-25 04:40:00,
2013-02-24 20:55:00,37.7,29.0,30.21,SSE,159,5.0,7.0,71,0.00,,,0.00,weatherlink.com 1.10,2013-02-25 04:55:00,
2013-02-24 21:10:00,37.7,29.0,30.20,South,171,6.0,8.0,72,0.00,,,0.00,weatherlink.com 1.10,2013-02-25 05:10:00,
2013-02-24 21:25:00,37.9,29.0,30.20,South,190,9.0,13.0,71,0.00,,,0.00,weatherlink.com 1.10,2013-02-25 05:25:00,
2013-02-24 21:40:00,38.0,28.0,30.20,South,178,4.0,15.0,67,0.00,,,0.00,weatherlink.com 1.10,2013-02-25 05:40:00,
2013-02-24 21:55:00,38.1,27.0,30.19,SSE,163,4.0,13.0,65,0.00,,,0.00,weatherlink.com 1.10,2013-02-25 05:55:00,
2013-02-24 22:10:00,38.0,27.0,30.19,SSW,202,8.0,18.0,65,0.00,,,0.00,weatherlink.com 1.10,2013-02-25 06:10:00,
2013-02-24 22:25:00,38.1,27.0,30.17,SSE,156,10.0,14.0,65,0.00,,,0.00,weatherlink.com 1.10,2013-02-25 06:25:00,
2013-02-24 22:40:00,38.1,27.0,30.18,SSE,159,7.0,15.0,64,0.00,,,0.00,weatherlink.com 1.10,2013-02-25 06:40:00,
2013-02-24 22:55:00,38.2,27.0,30.17,ESE,115,3.0,9.0,64,0.00,,,0.00,weatherlink.com 1.10,2013-02-25 06:55:00,
2013-02-24 23:10:00,37.8,27.0,30.16,SSE,168,5.0,9.0,64,0.00,,,0.00,weatherlink.com 1.10,2013-02-25 07:10:00,
2013-02-24 23:25:00,37.4,27.0,30.16,SSW,196,9.0,16.0,65,0.00,,,0.00,weatherlink.com 1.10,2013-02-25 07:25:00,
2013-02-24 23:40:00,37.3,26.0,30.14,South,187,12.0,18.0,64,0.00,,,0.00,weatherlink.com 1.10,2013-02-25 07:40:00,
2013-02-24 23:55:00,37.2,26.0,30.14,South,177,5.0,15.0,64,0.00,,,0.00,weatherlink.com 1.10,2013-02-25 07:55:00,